When you browse on this site, cookies collect data to enhance your experience and personalize the content and advertising you see.
Visit our Privacy Policy to learn more. By continuing to use the site, you agree to this use of cookies and data.
  • In Austria
  • List of Countries
  • For 7 days
  • Water Temperature
  • Weather Map
  • News
  • Weather Widgets
  • user-avatar
    Login

    Hourly Weather Zatysha

    Today, 15 November, Friday

    Time Temperature Precipitation Wind Pressure Humidity
    00:00 +4°C° 0 mm 4 mps 748 mmHg 65%
    01:00 +4°C° 0 mm 4 mps 748 mmHg 66%
    02:00 +3°C° 0 mm 4 mps 748 mmHg 68%
    03:00 +3°C° 0 mm 4 mps 748 mmHg 70%
    04:00 +3°C° 0 mm 4 mps 748 mmHg 71%
    05:00 +3°C° 0 mm 3 mps 748 mmHg 73%
    06:00 +3°C° 0 mm 3 mps 748 mmHg 73%
    07:00 +3°C° 0 mm 4 mps 749 mmHg 72%
    08:00 +3°C° 0 mm 4 mps 749 mmHg 72%
    09:00 +4°C° 0 mm 4 mps 749 mmHg 69%
    10:00 +5°C° 0 mm 4 mps 749 mmHg 65%
    11:00 +6°C° 0 mm 4 mps 749 mmHg 62%
    12:00 +7°C° 0 mm 4 mps 749 mmHg 61%
    13:00 +7°C° 0 mm 4 mps 749 mmHg 61%
    14:00 +7°C° 0 mm 4 mps 749 mmHg 61%
    15:00 +7°C° 0 mm 4 mps 749 mmHg 64%
    16:00 +7°C° 0 mm 3 mps 749 mmHg 67%
    17:00 +5°C° 0 mm 3 mps 749 mmHg 71%
    18:00 +7°C° 0 mm 3 mps 749 mmHg 71%
    19:00 +7°C° 0 mm 3 mps 749 mmHg 70%
    20:00 +7°C° 0 mm 3 mps 750 mmHg 70%
    21:00 +5°C° 0 mm 3 mps 750 mmHg 73%
    22:00 +5°C° 0 mm 3 mps 750 mmHg 76%
    23:00 +4°C° 0 mm 3 mps 750 mmHg 79%

    Tomorrow, 16 November, Saturday

    Time Temperature Precipitation Wind Pressure Humidity
    00:00 +4°C° 0 mm 3 mps 750 mmHg 81%
    01:00 +4°C° 0 mm 3 mps 750 mmHg 83%
    02:00 +4°C° 0 mm 3 mps 750 mmHg 84%
    03:00 +4°C° 0 mm 3 mps 750 mmHg 86%
    04:00 +4°C° 0 mm 3 mps 750 mmHg 88%
    05:00 +4°C° 0 mm 3 mps 750 mmHg 90%
    06:00 +5°C° 0 mm 3 mps 750 mmHg 89%
    07:00 +5°C° 0 mm 3 mps 751 mmHg 88%
    08:00 +5°C° 0 mm 3 mps 751 mmHg 87%
    09:00 +7°C° 0 mm 3 mps 751 mmHg 83%
    10:00 +9°C° 0 mm 3 mps 751 mmHg 80%
    11:00 +10°C° 0 mm 4 mps 751 mmHg 76%
    12:00 +10°C° 0 mm 3 mps 751 mmHg 75%
    13:00 +11°C° 0 mm 3 mps 751 mmHg 73%
    14:00 +12°C° 0 mm 3 mps 752 mmHg 72%
    15:00 +11°C° 0 mm 3 mps 752 mmHg 75%
    16:00 +10°C° 0 mm 3 mps 751 mmHg 79%
    17:00 +9°C° 0 mm 2 mps 751 mmHg 82%
    18:00 +8°C° 0 mm 3 mps 752 mmHg 82%
    19:00 +8°C° 0 mm 3 mps 752 mmHg 83%
    20:00 +8°C° 0 mm 3 mps 752 mmHg 83%
    21:00 +7°C° 0 mm 3 mps 752 mmHg 84%
    22:00 +7°C° 0 mm 3 mps 752 mmHg 84%
    23:00 +7°C° 0 mm 3 mps 752 mmHg 85%

    Day after tomorrow, 17 November, Sunday

    Time Temperature Precipitation Wind Pressure Humidity
    00:00 +7°C° 0 mm 3 mps 752 mmHg 85%
    01:00 +5°C° 0 mm 3 mps 753 mmHg 85%
    02:00 +5°C° 0 mm 3 mps 753 mmHg 85%
    03:00 +5°C° 0 mm 3 mps 753 mmHg 86%
    04:00 +5°C° 0 mm 3 mps 752 mmHg 86%
    05:00 +4°C° 0 mm 3 mps 752 mmHg 86%
    06:00 +4°C° 0 mm 3 mps 753 mmHg 85%
    07:00 +4°C° 0 mm 3 mps 753 mmHg 85%
    08:00 +4°C° 0 mm 3 mps 753 mmHg 84%
    09:00 +5°C° 0 mm 3 mps 753 mmHg 78%
    10:00 +8°C° 0 mm 3 mps 753 mmHg 71%
    11:00 +9°C° 0 mm 3 mps 753 mmHg 64%
    12:00 +9°C° 0 mm 3 mps 753 mmHg 62%
    13:00 +10°C° 0 mm 3 mps 753 mmHg 61%
    14:00 +10°C° 0 mm 3 mps 752 mmHg 59%
    15:00 +9°C° 0 mm 3 mps 752 mmHg 63%
    16:00 +8°C° 0 mm 3 mps 752 mmHg 68%
    17:00 +7°C° 0 mm 3 mps 752 mmHg 72%
    18:00 +7°C° 0 mm 3 mps 752 mmHg 74%
    19:00 +5°C° 0 mm 3 mps 752 mmHg 76%
    20:00 +5°C° 0 mm 4 mps 752 mmHg 79%
    21:00 +4°C° 0 mm 3 mps 752 mmHg 81%
    22:00 +4°C° 0 mm 3 mps 752 mmHg 84%
    23:00 +3°C° 0 mm 3 mps 751 mmHg 86%

    18 November, Monday

    Time Temperature Precipitation Wind Pressure Humidity
    00:00 +3°C° 0 mm 3 mps 751 mmHg 88%
    01:00 +3°C° 0 mm 3 mps 751 mmHg 89%
    02:00 +2°C° 0 mm 3 mps 751 mmHg 90%
    03:00 +2°C° 0 mm 3 mps 750 mmHg 91%
    04:00 +2°C° 0 mm 3 mps 750 mmHg 92%
    05:00 +2°C° 0 mm 3 mps 750 mmHg 92%
    06:00 +2°C° 0 mm 3 mps 750 mmHg 92%
    07:00 +2°C° 0 mm 3 mps 750 mmHg 91%
    08:00 +2°C° 0 mm 3 mps 750 mmHg 91%
    09:00 +3°C° 0 mm 4 mps 750 mmHg 84%
    10:00 +5°C° 0 mm 4 mps 750 mmHg 76%
    11:00 +7°C° 0 mm 4 mps 750 mmHg 69%
    12:00 +7°C° 0 mm 4 mps 750 mmHg 66%
    13:00 +8°C° 0 mm 4 mps 749 mmHg 64%
    14:00 +10°C° 0 mm 4 mps 749 mmHg 61%
    15:00 +8°C° 0 mm 4 mps 749 mmHg 67%
    16:00 +6°C° 0 mm 4 mps 749 mmHg 72%
    17:00 +5°C° 0 mm 3 mps 749 mmHg 78%
    18:00 +5°C° 0 mm 3 mps 749 mmHg 81%
    19:00 +4°C° 0 mm 3 mps 749 mmHg 83%
    20:00 +4°C° 0 mm 3 mps 749 mmHg 86%
    21:00 +4°C° 0 mm 3 mps 749 mmHg 88%
    22:00 +3°C° 0 mm 3 mps 749 mmHg 90%
    23:00 +4°C° 0 mm 2 mps 750 mmHg 91%

    19 November, Tuesday

    Time Temperature Precipitation Wind Pressure Humidity
    00:00 +4°C° 0 mm 2 mps 750 mmHg 92%
    01:00 +4°C° 0 mm 2 mps 750 mmHg 93%
    02:00 +4°C° 0 mm 2 mps 750 mmHg 93%
    03:00 +4°C° 0 mm 2 mps 750 mmHg 93%
    04:00 +5°C° 0 mm 2 mps 750 mmHg 93%
    05:00 +6°C° 0 mm 2 mps 750 mmHg 94%
    06:00 +6°C° 0 mm 2 mps 750 mmHg 94%
    07:00 +6°C° 0 mm 2 mps 750 mmHg 94%
    08:00 +7°C° 0 mm 2 mps 750 mmHg 94%
    09:00 +7°C° 0 mm 2 mps 750 mmHg 93%
    10:00 +8°C° 0 mm 2 mps 750 mmHg 92%
    11:00 +9°C° 0 mm 2 mps 751 mmHg 91%
    12:00 +9°C° 0 mm 2 mps 750 mmHg 90%
    13:00 +9°C° 0 mm 2 mps 750 mmHg 90%
    14:00 +9°C° 0 mm 2 mps 750 mmHg 89%
    15:00 +9°C° 0 mm 2 mps 750 mmHg 90%
    16:00 +9°C° 0 mm 2 mps 750 mmHg 91%
    17:00 +9°C° 0 mm 2 mps 750 mmHg 92%
    18:00 +9°C° 0 mm 2 mps 750 mmHg 92%
    19:00 +9°C° 0 mm 2 mps 750 mmHg 92%
    20:00 +9°C° 0 mm 2 mps 750 mmHg 92%
    21:00 +9°C° 0 mm 2 mps 750 mmHg 92%
    22:00 +9°C° 0 mm 2 mps 750 mmHg 92%
    23:00 +9°C° 0 mm 2 mps 750 mmHg 92%

    20 November, Wednesday

    Time Temperature Precipitation Wind Pressure Humidity
    00:00 +9°C° 0 mm 2 mps 750 mmHg 92%
    01:00 +8°C° 0 mm 2 mps 750 mmHg 92%
    02:00 +8°C° 0 mm 2 mps 750 mmHg 92%
    03:00 +9°C° 0 mm 3 mps 750 mmHg 91%
    04:00 +9°C° 0 mm 3 mps 749 mmHg 91%
    05:00 +9°C° 0 mm 3 mps 749 mmHg 90%
    06:00 +9°C° 0 mm 3 mps 749 mmHg 89%
    07:00 +9°C° 0 mm 3 mps 749 mmHg 88%
    08:00 +9°C° 0 mm 3 mps 749 mmHg 87%
    09:00 +8°C° 0.1 mm 4 mps 749 mmHg 85%
    10:00 +8°C° 0.1 mm 4 mps 750 mmHg 83%
    11:00 +10°C° 0.1 mm 4 mps 750 mmHg 80%
    12:00 +10°C° 0 mm 4 mps 750 mmHg 78%
    13:00 +10°C° 0 mm 4 mps 749 mmHg 76%
    14:00 +11°C° 0 mm 4 mps 749 mmHg 74%
    15:00 +10°C° 0.6 mm 4 mps 749 mmHg 77%
    16:00 +10°C° 0.6 mm 4 mps 749 mmHg 79%
    17:00 +8°C° 0.6 mm 4 mps 749 mmHg 82%
    18:00 +8°C° 0.5 mm 4 mps 750 mmHg 82%
    19:00 +8°C° 0.5 mm 4 mps 750 mmHg 82%
    20:00 +8°C° 0.5 mm 5 mps 750 mmHg 81%
    21:00 +7°C° 0.1 mm 4 mps 750 mmHg 80%
    22:00 +7°C° 0.1 mm 4 mps 750 mmHg 79%
    23:00 +7°C° 0.1 mm 4 mps 750 mmHg 79%
    Show more